| time (UTC) | temp C | wind direction | speed KPH | gust KPH | rain 1hr cm | rain 24hr cm | rain mn cm | humidity % | barometer mb |
| 20260507041516 | 8 | 0.0 | 0.0 | 0.05 | 2.72 | 0.33 | 94 | 1015.0 | |
| 20260507040536 | 8 | 0.0 | 1.6 | 0.08 | 2.72 | 0.33 | 94 | 1015.0 | |
| 20260507035517 | 8 | 0.0 | 3.2 | 0.05 | 2.69 | 0.30 | 94 | 1014.9 | |
| 20260507034537 | 8 | 0.0 | 1.6 | 0.08 | 2.69 | 0.30 | 94 | 1014.8 | |
| 20260507033516 | 8 | 0.0 | 1.6 | 0.05 | 2.67 | 0.28 | 94 | 1014.9 | |
| 20260507032516 | 8 | 0.0 | 1.6 | 0.05 | 2.67 | 0.28 | 94 | 1014.7 | |
| 20260507031536 | 8 | 0.0 | 1.6 | 0.05 | 2.67 | 0.28 | 93 | 1014.7 | |
| 20260507030536 | 8 | 0.0 | 1.6 | 0.03 | 2.64 | 0.25 | 94 | 1014.6 | |
| 20260507025518 | 9 | 0.0 | 1.6 | 0.05 | 2.64 | 0.25 | 94 | 1014.6 | |
| 20260507024516 | 9 | 0.0 | 0.0 | 0.03 | 2.62 | 0.23 | 94 | 1014.5 | |
| 20260507023516 | 9 | 0.0 | 1.6 | 0.03 | 2.62 | 0.23 | 94 | 1014.3 | |
| 20260507022516 | 9 | 0.0 | 1.6 | 0.03 | 2.62 | 0.23 | 94 | 1014.2 | |
| 20260507021537 | 9 | 0.0 | 0.0 | 0.05 | 2.62 | 0.23 | 94 | 1014.1 | |
| 20260507020516 | 9 | 0.0 | 3.2 | 0.05 | 2.62 | 0.23 | 94 | 1014.0 | |
| 20260507015516 | 9 | 0.0 | 0.0 | 0.03 | 2.59 | 0.20 | 94 | 1013.8 | |
| 20260507014517 | 9 | 0.0 | 1.6 | 0.05 | 2.59 | 0.20 | 94 | 1013.7 | |
| 20260507013516 | 9 | 0.0 | 0.0 | 0.08 | 2.59 | 0.20 | 94 | 1013.6 | |
| 20260507012516 | 9 | 0.0 | 1.6 | 0.08 | 2.59 | 0.20 | 93 | 1013.6 | |
| 20260507011516 | 9 | 0.0 | 1.6 | 0.05 | 2.57 | 0.18 | 94 | 1013.7 | |
| 20260507010516 | 9 | 0.0 | 1.6 | 0.05 | 2.57 | 0.18 | 93 | 1013.6 | |
| 20260507005516 | 9 | 0.0 | 1.6 | 0.08 | 2.57 | 0.18 | 93 | 1013.7 | |
| 20260507004516 | 9 | 0.0 | 1.6 | 0.05 | 2.54 | 0.15 | 93 | 1013.6 | |
| 20260507003516 | 9 | 0.0 | 1.6 | 0.03 | 2.51 | 0.13 | 93 | 1013.5 | |
| 20260507002517 | 9 | 0.0 | 1.6 | 0.03 | 2.51 | 0.13 | 93 | 1013.6 | |
| 20260507001516 | 9 | 0.0 | 1.6 | 0.03 | 2.51 | 0.13 | 93 | 1013.6 | |
| 20260507000536 | 9 | 0.0 | 3.2 | 0.03 | 2.51 | 0.13 | 93 | 1013.6 | |
| 20260506235516 | 9 | 0.0 | 1.6 | 0.00 | 2.49 | 0.10 | 93 | 1013.8 | |
| 20260506234516 | 9 | 0.0 | 1.6 | 0.03 | 2.49 | 0.10 | 93 | 1013.7 | |
| 20260506233516 | 9 | 0.0 | 1.6 | 0.03 | 2.49 | 0.10 | 93 | 1013.8 | |
| 20260506232516 | 9 | 0.0 | 1.6 | 0.05 | 2.49 | 0.10 | 93 | 1013.9 | |
| 20260506231516 | 9 | 0.0 | 1.6 | 0.08 | 2.49 | 0.10 | 93 | 1013.9 | |
| 20260506230516 | 9 | 0.0 | 1.6 | 0.10 | 2.49 | 0.10 | 93 | 1013.8 | |
| 20260506225516 | 9 | 0.0 | 1.6 | 0.13 | 2.49 | 0.10 | 93 | 1013.9 | |
| 20260506224537 | 9 | 0.0 | 3.2 | 0.13 | 2.46 | 0.08 | 93 | 1013.9 | |
| 20260506223516 | 9 | 0.0 | 1.6 | 0.15 | 2.46 | 0.08 | 93 | 1014.0 | |
| 20260506222516 | 10 | 0.0 | 1.6 | 0.15 | 2.44 | 0.05 | 93 | 1013.8 | |
| 20260506221516 | 10 | 0.0 | 1.6 | 0.13 | 2.41 | 0.03 | 93 | 1013.9 | |
| 20260506220516 | 10 | 0.0 | 3.2 | 0.10 | 2.39 | 0.00 | 93 | 1013.7 | |
| 20260506215516 | 10 | 0.0 | 3.2 | 0.08 | 2.36 | 2.36 | 93 | 1013.5 | |
| 20260506214516 | 10 | 0.0 | 1.6 | 0.08 | 2.34 | 2.34 | 93 | 1013.5 | |
| 20260506213516 | 10 | 0.0 | 4.8 | 0.05 | 2.31 | 2.31 | 93 | 1013.3 | |
| 20260506212516 | 10 | 0.0 | 1.6 | 0.03 | 2.29 | 2.29 | 93 | 1013.3 | |
| 20260506211516 | 10 | 0.0 | 4.8 | 0.05 | 2.29 | 2.29 | 93 | 1013.2 | |
| 20260506210536 | 10 | 293 | 1.6 | 4.8 | 0.08 | 2.29 | 2.29 | 93 | 1013.1 |
| 20260506205516 | 10 | 0.0 | 3.2 | 0.13 | 2.29 | 2.29 | 93 | 1012.9 | |
| 20260506204517 | 10 | 315 | 1.6 | 4.8 | 0.18 | 2.26 | 2.26 | 93 | 1012.9 |
| 20260506203516 | 10 | 23 | 1.6 | 3.2 | 0.25 | 2.26 | 2.26 | 93 | 1012.9 |
| 20260506202516 | 10 | 23 | 1.6 | 4.8 | 0.28 | 2.26 | 2.26 | 93 | 1012.8 |
| 20260506201516 | 10 | 293 | 1.6 | 3.2 | 0.30 | 2.24 | 2.24 | 93 | 1012.8 |
| 20260506200516 | 10 | 315 | 1.6 | 3.2 | 0.30 | 2.21 | 2.21 | 93 | 1012.7 |
| 20260506195516 | 10 | 0.0 | 3.2 | 0.28 | 2.16 | 2.16 | 92 | 1012.7 | |
| 20260506194515 | 10 | 0.0 | 3.2 | 0.23 | 2.08 | 2.08 | 93 | 1012.6 | |
| 20260506193516 | 10 | 0.0 | 3.2 | 0.18 | 2.01 | 2.01 | 93 | 1012.4 | |
| 20260506192536 | 11 | 0.0 | 3.2 | 0.15 | 1.98 | 1.98 | 92 | 1012.2 | |
| 20260506191515 | 11 | 0.0 | 3.2 | 0.13 | 1.93 | 1.93 | 93 | 1012.1 | |
| 20260506190536 | 11 | 0.0 | 3.2 | 0.13 | 1.91 | 1.91 | 92 | 1011.9 | |
| 20260506185516 | 11 | 293 | 1.6 | 4.8 | 0.10 | 1.88 | 1.88 | 92 | 1011.8 |
| 20260506184515 | 11 | 0.0 | 3.2 | 0.10 | 1.85 | 1.85 | 92 | 1011.5 | |
| 20260506183516 | 11 | 0.0 | 1.6 | 0.08 | 1.83 | 1.83 | 92 | 1011.5 | |
| 20260506182537 | 11 | 0.0 | 1.6 | 0.08 | 1.83 | 1.83 | 92 | 1011.4 | |
| 20260506181516 | 11 | 0.0 | 1.6 | 0.05 | 1.83 | 1.80 | 92 | 1011.2 | |
| 20260506180515 | 11 | 0.0 | 1.6 | 0.03 | 1.80 | 1.78 | 92 | 1011.1 | |
| 20260506175515 | 11 | 0.0 | 1.6 | 0.03 | 1.83 | 1.78 | 92 | 1011.1 | |
| 20260506174515 | 11 | 0.0 | 3.2 | 0.00 | 1.80 | 1.75 | 92 | 1011.0 | |
| 20260506173536 | 11 | 0.0 | 1.6 | 0.00 | 1.83 | 1.75 | 92 | 1011.0 | |
| 20260506172516 | 11 | 0.0 | 1.6 | 0.00 | 1.83 | 1.75 | 92 | 1010.8 | |
| 20260506171515 | 11 | 0.0 | 0.0 | 0.00 | 1.85 | 1.75 | 92 | 1010.8 | |
| 20260506170516 | 11 | 0.0 | 0.0 | 0.00 | 1.85 | 1.75 | 92 | 1010.8 | |
| 20260506165515 | 12 | 0.0 | 0.0 | 0.00 | 1.85 | 1.75 | 92 | 1010.7 | |
| 20260506164515 | 12 | 0.0 | 0.0 | 0.00 | 1.85 | 1.75 | 92 | 1010.8 | |
| 20260506163515 | 12 | 0.0 | 0.0 | 0.00 | 1.85 | 1.75 | 92 | 1010.7 | |
| 20260506162536 | 12 | 0.0 | 1.6 | 0.03 | 1.85 | 1.75 | 91 | 1010.8 | |
| 20260506161515 | 12 | 0.0 | 0.0 | 0.03 | 1.85 | 1.75 | 92 | 1010.7 | |
| 20260506160515 | 12 | 0.0 | 1.6 | 0.03 | 1.85 | 1.75 | 92 | 1010.8 | |
| 20260506155515 | 12 | 0.0 | 1.6 | 0.08 | 1.85 | 1.75 | 91 | 1010.7 | |
| 20260506154515 | 12 | 0.0 | 3.2 | 0.18 | 1.85 | 1.75 | 91 | 1010.7 | |
| 20260506153515 | 12 | 0.0 | 0.0 | 0.33 | 1.85 | 1.75 | 91 | 1010.6 | |
| 20260506152515 | 12 | 0.0 | 4.8 | 0.43 | 1.83 | 1.73 | 91 | 1010.6 | |
| 20260506151515 | 12 | 0.0 | 1.6 | 0.61 | 1.83 | 1.73 | 91 | 1010.7 | |
| 20260506150537 | 12 | 0.0 | 1.6 | 0.79 | 1.83 | 1.73 | 91 | 1010.6 | |
| 20260506145515 | 11 | 0.0 | 0.0 | 0.89 | 1.78 | 1.68 | 91 | 1010.4 | |
| 20260506144515 | 11 | 0.0 | 0.0 | 0.97 | 1.70 | 1.55 | 91 | 1010.3 | |
| 20260506143517 | 11 | 0.0 | 0.0 | 0.99 | 1.57 | 1.42 | 90 | 1010.3 | |
| 20260506142537 | 11 | 0.0 | 1.6 | 0.94 | 1.47 | 1.27 | 90 | 1010.2 | |
| 20260506141517 | 11 | 0.0 | 1.6 | 0.79 | 1.32 | 1.12 | 90 | 1010.1 | |
| 20260506140517 | 12 | 0.0 | 1.6 | 0.69 | 1.14 | 0.94 | 89 | 1010.2 | |
| 20260506135518 | 12 | 0.0 | 3.2 | 0.71 | 0.99 | 0.79 | 88 | 1010.1 | |
| 20260506134538 | 12 | 23 | 1.6 | 4.8 | 0.61 | 0.86 | 0.61 | 87 | 1010.1 |
| 20260506133517 | 12 | 0.0 | 3.2 | 0.43 | 0.71 | 0.43 | 85 | 1010.1 | |
| 20260506132517 | 14 | 270 | 1.6 | 12.9 | 0.36 | 0.69 | 0.36 | 85 | 1009.9 |
| 20260506131517 | 15 | 0.0 | 0.0 | 0.33 | 0.69 | 0.33 | 85 | 1009.8 | |
| 20260506130517 | 15 | 0.0 | 0.0 | 0.25 | 0.66 | 0.25 | 83 | 1009.8 | |
| 20260506125538 | 16 | 0.0 | 0.0 | 0.08 | 0.58 | 0.08 | 81 | 1009.7 | |
| 20260506124518 | 16 | 0.0 | 0.0 | 0.00 | 0.58 | 0.00 | 79 | 1009.4 | |
| 20260506123517 | 16 | 0.0 | 0.0 | 0.00 | 0.61 | 0.00 | 80 | 1009.3 | |
| 20260506122517 | 16 | 0.0 | 0.0 | 0.00 | 0.64 | 0.00 | 80 | 1009.3 | |
| 20260506121517 | 17 | 0.0 | 3.2 | 0.00 | 0.69 | 0.00 | 77 | 1009.4 | |
| 20260506120537 | 17 | 0.0 | 1.6 | 0.00 | 0.71 | 0.00 | 76 | 1009.4 | |
| 20260506115517 | 17 | 0.0 | 1.6 | 0.00 | 0.71 | 0.00 | 73 | 1009.4 | |
| 20260506114518 | 17 | 0.0 | 1.6 | 0.00 | 0.71 | 0.00 | 71 | 1009.4 | |
| 20260506113517 | 17 | 0.0 | 0.0 | 0.00 | 0.71 | 0.00 | 71 | 1009.4 | |
| 20260506112517 | 17 | 0.0 | 1.6 | 0.00 | 0.71 | 0.00 | 70 | 1009.4 | |
| 20260506111519 | 17 | 0.0 | 1.6 | 0.00 | 0.71 | 0.00 | 69 | 1009.5 | |
| 20260506110517 | 17 | 0.0 | 3.2 | 0.00 | 0.71 | 0.00 | 69 | 1009.7 | |
| 20260506105517 | 17 | 0.0 | 3.2 | 0.00 | 0.71 | 0.00 | 65 | 1009.8 | |
| 20260506104517 | 18 | 0.0 | 4.8 | 0.00 | 0.71 | 0.00 | 65 | 1009.9 | |
| 20260506103517 | 18 | 0.0 | 3.2 | 0.00 | 0.71 | 0.00 | 66 | 1010.0 | |
| 20260506102557 | 18 | 135 | 1.6 | 4.8 | 0.00 | 0.71 | 0.00 | 64 | 1010.0 |
| 20260506101517 | 18 | 0.0 | 1.6 | 0.00 | 0.71 | 0.00 | 61 | 1010.2 | |
| 20260506100537 | 18 | 90 | 1.6 | 4.8 | 0.00 | 0.71 | 0.00 | 66 | 1010.3 |
| 20260506095537 | 18 | 0.0 | 3.2 | 0.00 | 0.71 | 0.00 | 64 | 1010.2 | |
| 20260506094557 | 18 | 113 | 1.6 | 4.8 | 0.00 | 0.71 | 0.00 | 68 | 1010.3 |
| 20260506093517 | 17 | 90 | 1.6 | 4.8 | 0.00 | 0.71 | 0.00 | 69 | 1010.4 |
| 20260506092517 | 17 | 0.0 | 3.2 | 0.00 | 0.71 | 0.00 | 71 | 1010.4 | |
| 20260506091517 | 17 | 0.0 | 3.2 | 0.00 | 0.71 | 0.00 | 74 | 1010.3 | |
| 20260506090517 | 16 | 0.0 | 3.2 | 0.00 | 0.71 | 0.00 | 73 | 1010.2 | |
| 20260506085516 | 16 | 0.0 | 1.6 | 0.00 | 0.71 | 0.00 | 76 | 1010.2 | |
| 20260506084537 | 16 | 0.0 | 1.6 | 0.00 | 0.71 | 0.00 | 77 | 1010.3 | |
| 20260506083516 | 16 | 0.0 | 1.6 | 0.00 | 0.71 | 0.00 | 76 | 1010.2 | |
| 20260506082516 | 16 | 0.0 | 3.2 | 0.00 | 0.71 | 0.00 | 72 | 1010.3 | |
| 20260506081516 | 16 | 0.0 | 3.2 | 0.00 | 0.71 | 0.00 | 75 | 1010.4 | |
| 20260506080517 | 16 | 90 | 1.6 | 3.2 | 0.00 | 0.71 | 0.00 | 75 | 1010.3 |
| 20260506073516 | 14 | 0.0 | 1.6 | 0.00 | 0.71 | 0.00 | 84 | 1010.2 | |
| 20260506072517 | 13 | 0.0 | 1.6 | 0.00 | 0.71 | 0.00 | 85 | 1010.0 | |
| 20260506071516 | 13 | 0.0 | 1.6 | 0.00 | 0.71 | 0.00 | 87 | 1010.0 | |
| 20260506070516 | 13 | 0.0 | 1.6 | 0.00 | 0.71 | 0.00 | 89 | 1009.9 | |
| 20260506062516 | 12 | 0.0 | 1.6 | 0.00 | 0.71 | 0.00 | 93 | 1010.2 | |
| 20260506061516 | 12 | 0.0 | 1.6 | 0.00 | 0.71 | 0.00 | 95 | 1010.3 | |
| 20260506060517 | 11 | 0.0 | 0.0 | 0.00 | 0.71 | 0.00 | 95 | 1010.2 | |
| 20260506050516 | 9 | 0.0 | 0.0 | 0.00 | 0.71 | 0.00 | 93 | 1010.0 | |
| 20260506044516 | 9 | 0.0 | 0.0 | 0.00 | 0.71 | 0.00 | 93 | 1010.1 | |
| 20260506043516 | 9 | 0.0 | 0.0 | 0.00 | 0.71 | 0.00 | 93 | 1010.0 | |
| 20260506042516 | 9 | 0.0 | 0.0 | 0.00 | 0.71 | 0.00 | 93 | 1010.1 |